Location: Dealu Mare
(46.0500°N, 22.8167°E)
Time: 22:05:03
(UTC+00:00)

Dummy Sat-01 - Pass Details

Date: 15 January 2026
Orbit: 476 x 491 km, 86.3° (Epoch: 13 February)

Event Time Altitude Azimuth Distance (km) Brightness Sun altitude
Rises 04:55:43 0° 187° (S) 2,558 8.4 -12.1°
Reaches altitude 10° 04:57:49 10° 190° (S) 1,681 7.4 -11.8°
Maximum altitude 05:01:28 69° 274° (W) 531 4.5 -11.2°
Drops below altitude 10° 05:05:08 10° 359° (N) 1,692 7.1 -10.6°
Sets 05:07:15 0° 2° (N) 2,577 8.1 -10.2°
